User: anonymous   Login
Location: Unspecified
(0.0000°N, 0.0000°E)
Time: 07:41:13
(UTC+00:00)
Language:

COSMOS 2484 - Orbit

View from above orbital plane
View from above orbital plane
View from above satellite
View from above satellite

Ground track
Ground track

The orbit data is extracted from the following two-line orbital elements,

1 39059U 13001C   18115.72834047 -.00000004  00000-0 -10074-3 0  9993
2 39059  82.4978 271.2434 0025620  45.1481 315.1674 12.42892902239254
Epoch (UTC): 25 April 2018 17:28:48
Eccentricity: 0.0025620
inclination: 82.4978°
perigee height: 1474 km
apogee height: 1514 km
right ascension of ascending node: 271.2434°
argument of perigee: 45.1481°
revolutions per day: 12.42892902
mean anomaly at epoch: 315.1674°
orbit number at epoch: 23925

The dashed part of the orbit path shows where the satellite is in the earth's shadow,  

DLR